Temp
11 12 12 12 13 13 13 13 13 14 14 14 14 14 14 14 14 14 14 15 15 16 16 16 16 16 16 17 17 16 17 17 15 17 17 16 15 15 15 15 14 13 12 12 12
11 11 12 12 12 12 13 13 13 13 14 14 14 14 14 14 14 14 14 15 15 16 16 16 17 16 17 17 17 17 18 18 17 17 17 16 15 15 15 14 13 12 12 10 12
11 11 11 12 12 12 13 13 13 13 14 14 14 14 14 15 15 15 14 15 15 16 16 16 16 16 17 17 18 18 18 18 18 18 18 17 16 16 14 14 13 12 12 10 10
11 11 11 12 12 12 13 13 13 13 14 14 14 14 14 15 15 15 14 15 15 15 16 16 16 16 17 17 18 17 18 18 18 18 18 17 17 16 15 14 13 13 12 10 9
10 11 11 11 12 12 12 13 13 13 14 14 14 14 15 15 15 15 15 15 15 15 15 16 16 16 16 16 17 18 18 18 18 18 18 17 16 17 15 14 13 13 12 12 12
10 11 11 11 12 12 12 13 13 13 14 14 14 14 15 15 14 14 15 15 15 15 15 15 16 15 16 16 17 17 18 18 18 18 18 17 16 16 15 15 13 13 11 12 12
10 10 11 11 12 12 12 12 13 13 13 14 14 15 15 14 14 14 15 15 15 15 15 15 15 15 15 16 17 17 18 19 18 18 17 16 17 16 16 15 16 15 14 11 11
10 10 11 11 11 12 12 12 12 13 13 14 14 15 15 14 15 15 15 15 15 15 15 15 15 15 15 16 17 17 18 18 18 17 17 17 16 17 17 16 16 15 13 12 12
10 10 10 11 11 11 12 12 12 12 13 13 14 14 15 15 15 15 14 15 15 15 15 15 15 15 15 16 16 17 17 18 18 18 18 17 16 16 16 16 16 15 13 13 13
9 10 10 11 11 11 11 11 12 12 13 13 14 14 14 14 14 14 14 14 14 15 15 15 15 15 16 16 16 17 17 18 18 19 18 19 18 17 17 16 16 14 14 14 14
9 10 10 10 11 11 11 11 11 11 12 13 14 14 14 14 14 14 14 14 14 14 14 15 14 15 16 16 16 16 16 17 18 18 18 19 18 18 18 17 17 16 15 13 14
9 10 10 10 10 11 11 10 10 10 14 13 14 14 14 14 14 14 13 14 13 14 14 14 14 15 16 16 16 16 17 17 18 18 18 19 19 17 18 17 17 17 13 14 14
10 10 10 10 10 10 11 11 11 11 13 15 15 15 13 14 14 14 13 14 13 13 14 14 14 15 15 16 16 16 17 17 18 18 18 19 18 18 17 17 16 15 15 15 15
10 10 10 10 10 10 11 11 11 12 13 15 15 15 14 13 15 14 13 13 13 13 14 14 15 15 15 15 16 16 17 17 17 17 18 18 18 18 18 17 16 15 14 14 15
10 10 9 9 10 10 10 10 11 12 10 15 15 14 14 14 14 15 14 13 13 13 13 14 15 15 15 16 16 17 17 18 18 17 18 17 18 17 17 17 17 16 16 16 16
10 10 10 10 10 10 10 10 10 11 12 14 15 15 14 15 14 14 13 13 13 14 14 14 15 15 16 17 17 17 17 17 17 18 16 17 17 18 17 19 17 17 17 17 16
10 10 10 10 9 10 10 10 10 10 14 14 14 15 14 14 14 14 13 13 13 14 14 14 15 16 16 16 17 17 18 16 15 14 14 17 17 18 18 18 17 17 17 17 16
10 10 10 9 10 10 10 10 9 12 14 14 13 15 15 15 15 14 14 14 14 14 14 15 15 16 16 17 17 18 18 17 13 11 15 17 17 18 18 18 17 17 16 16 16
10 10 9 9 10 10 10 9 11 12 13 12 14 15 15 15 15 15 14 14 15 15 14 14 15 17 17 17 17 18 17 17 17 15 15 17 17 18 18 18 18 17 16 16 16
9 10 9 9 9 10 9 10 11 12 12 13 12 14 14 14 14 15 15 15 15 15 15 15 15 16 17 17 17 18 18 17 17 12 14 16 16 17 17 18 18 17 17 16 15
9 8 8 8 9 9 9 10 12 13 12 12 13 13 14 14 14 14 16 16 16 16 16 16 16 17 16 17 17 18 18 18 17 17 13 12 16 17 17 17 17 15 15 14 14
8 7 8 7 7 8 9 10 10 12 12 12 12 13 14 14 14 14 15 16 17 17 16 16 16 16 17 17 17 17 18 18 17 17 17 16 17 17 16 16 16 15 14 13 12
7 6 7 7 8 8 9 10 9 11 12 12 12 13 13 14 14 14 15 15 15 16 17 17 16 16 16 17 17 17 18 18 18 18 17 15 17 17 16 17 16 16 16 15 14
7 6 5 6 7 7 8 9 10 10 12 11 12 13 13 13 14 14 14 15 16 16 17 17 17 17 16 17 17 17 17 17 16 17 17 17 18 17 17 17 15 15 15 15 13
7 6 6 6 6 6 7 8 9 10 11 12 12 13 13 13 13 13 14 15 15 15 16 17 17 17 17 16 16 17 17 17 17 17 17 18 18 18 17 16 16 16 16 15 14
7 7 6 6 6 7 7 8 8 10 9 11 11 11 13 13 13 13 14 14 14 15 15 15 16 17 17 16 16 16 16 16 17 18 17 17 17 17 17 15 15 15 16 15 14
7 7 6 7 7 7 7 7 8 9 10 10 11 12 13 13 13 12 13 13 13 13 14 14 14 14 16 16 16 16 17 16 17 17 17 17 18 18 18 17 15 15 15 15 15
Height
3175 3175 3175 3174 3174 3174 3174 3174 3174 3174 3174 3174 3175 3176 3178 3179 3181 3184 3186 3190 3190 3192 3193 3192 3193 3193 3192 3192 3191 3192 3193 3192 3191 3191 3190 3188 3189 3190 3189 3187 3186 3186 3185 3185 3183
3174 3173 3173 3173 3172 3172 3171 3171 3171 3171 3171 3172 3172 3173 3175 3177 3179 3181 3187 3188 3189 3191 3193 3192 3193 3192 3192 3190 3189 3190 3192 3192 3191 3190 3189 3189 3190 3191 3190 3188 3188 3187 3187 3185 3185
3172 3172 3172 3171 3171 3170 3170 3170 3169 3169 3169 3169 3169 3170 3172 3174 3177 3180 3183 3187 3189 3189 3191 3192 3192 3192 3191 3189 3189 3190 3190 3189 3190 3190 3188 3190 3191 3191 3190 3189 3189 3189 3187 3186 3184
3170 3170 3170 3169 3169 3169 3168 3168 3167 3167 3167 3166 3167 3167 3169 3171 3176 3176 3180 3184 3186 3188 3189 3191 3192 3191 3189 3188 3189 3189 3188 3188 3189 3191 3191 3191 3192 3190 3189 3188 3189 3189 3189 3189 3187
3169 3168 3167 3167 3167 3166 3166 3166 3165 3165 3165 3165 3164 3165 3166 3168 3172 3173 3177 3181 3184 3186 3188 3189 3190 3190 3188 3187 3186 3189 3189 3188 3189 3190 3190 3191 3191 3190 3189 3191 3191 3192 3190 3190 3190
3166 3166 3165 3164 3164 3164 3164 3163 3163 3163 3163 3163 3163 3163 3164 3167 3167 3170 3173 3178 3181 3183 3186 3187 3189 3189 3186 3186 3187 3187 3187 3187 3189 3190 3190 3190 3187 3188 3189 3188 3187 3189 3191 3192 3191
3164 3163 3162 3162 3162 3161 3161 3161 3161 3160 3160 3160 3161 3161 3162 3165 3165 3166 3170 3173 3177 3180 3183 3185 3186 3187 3187 3186 3186 3187 3186 3186 3184 3188 3187 3188 3189 3186 3190 3188 3186 3186 3184 3186 3187
3161 3160 3160 3159 3159 3159 3158 3158 3158 3158 3158 3158 3158 3159 3160 3161 3160 3163 3168 3172 3174 3177 3180 3184 3185 3185 3186 3186 3185 3185 3186 3186 3189 3186 3187 3187 3186 3185 3187 3187 3183 3181 3180 3184 3187
3157 3157 3157 3156 3156 3156 3156 3156 3155 3155 3155 3155 3156 3157 3159 3160 3161 3163 3165 3170 3172 3174 3177 3180 3183 3183 3185 3185 3184 3186 3187 3187 3187 3188 3186 3186 3184 3185 3184 3184 3182 3180 3183 3186 3187
3155 3154 3154 3153 3153 3154 3154 3153 3153 3153 3153 3153 3154 3157 3157 3158 3160 3161 3163 3165 3168 3172 3175 3178 3181 3181 3183 3184 3184 3184 3187 3186 3186 3187 3185 3185 3182 3182 3182 3183 3183 3183 3187 3186 3186
3151 3151 3151 3151 3151 3152 3153 3153 3154 3153 3150 3151 3151 3153 3154 3154 3157 3158 3159 3161 3165 3168 3171 3176 3177 3178 3181 3183 3184 3184 3185 3183 3184 3185 3186 3184 3179 3179 3180 3183 3183 3187 3188 3187 3188
3148 3148 3149 3149 3149 3150 3150 3149 3150 3148 3145 3146 3147 3150 3152 3152 3153 3154 3158 3160 3161 3164 3169 3173 3172 3176 3179 3181 3182 3182 3183 3183 3182 3182 3183 3182 3182 3180 3181 3183 3184 3185 3188 3189 3188
3144 3145 3146 3146 3147 3147 3146 3148 3147 3144 3144 3145 3144 3146 3150 3151 3151 3151 3156 3158 3159 3163 3165 3167 3171 3175 3176 3178 3180 3179 3182 3183 3184 3180 3180 3180 3179 3179 3181 3183 3184 3187 3183 3185 3184
3141 3141 3142 3144 3146 3145 3145 3146 3146 3146 3145 3143 3142 3144 3146 3149 3149 3151 3153 3157 3158 3160 3165 3165 3168 3170 3173 3175 3178 3176 3181 3181 3182 3182 3179 3177 3178 3176 3177 3179 3182 3182 3180 3182 3183
3139 3138 3139 3141 3142 3142 3145 3144 3145 3146 3146 3144 3143 3144 3145 3147 3148 3147 3150 3153 3156 3158 3162 3161 3165 3168 3170 3171 3176 3176 3178 3177 3178 3180 3176 3176 3174 3173 3174 3175 3177 3177 3177 3180 3184
3136 3136 3136 3138 3139 3141 3143 3143 3145 3148 3142 3141 3142 3143 3144 3145 3147 3148 3150 3153 3156 3158 3159 3159 3162 3165 3167 3168 3171 3174 3175 3174 3175 3176 3174 3173 3175 3170 3169 3171 3175 3175 3175 3178 3181
3133 3133 3133 3135 3137 3138 3140 3143 3146 3142 3141 3143 3142 3141 3142 3142 3145 3147 3150 3152 3153 3156 3156 3156 3156 3158 3162 3165 3167 3171 3172 3172 3175 3173 3173 3172 3173 3169 3169 3171 3173 3174 3174 3177 3178
3130 3130 3131 3132 3134 3136 3138 3142 3141 3138 3139 3140 3139 3142 3142 3142 3144 3146 3147 3148 3152 3153 3155 3156 3154 3154 3157 3160 3163 3165 3166 3167 3175 3177 3169 3170 3168 3167 3166 3167 3171 3173 3174 3175 3175
3127 3127 3128 3129 3131 3134 3137 3136 3135 3136 3139 3136 3134 3139 3140 3141 3144 3143 3144 3146 3148 3149 3152 3152 3149 3151 3153 3158 3161 3160 3162 3166 3167 3169 3166 3167 3165 3161 3162 3164 3166 3164 3169 3170 3173
3124 3125 3125 3127 3129 3132 3133 3132 3132 3135 3137 3137 3137 3141 3141 3143 3144 3143 3142 3141 3143 3145 3147 3150 3149 3146 3148 3152 3152 3155 3160 3161 3163 3166 3167 3163 3160 3157 3158 3158 3161 3165 3165 3169 3171
3122 3123 3125 3126 3128 3130 3130 3130 3132 3136 3139 3137 3134 3136 3137 3139 3139 3138 3139 3139 3139 3141 3145 3147 3150 3144 3148 3149 3150 3151 3152 3155 3157 3158 3160 3164 3157 3154 3157 3159 3158 3160 3166 3169 3174
3120 3122 3123 3126 3129 3128 3129 3131 3132 3132 3137 3137 3135 3135 3135 3136 3136 3137 3137 3137 3137 3138 3140 3140 3144 3142 3144 3145 3146 3145 3146 3148 3149 3154 3153 3156 3156 3154 3154 3155 3153 3155 3160 3163 3168
3119 3120 3123 3123 3125 3127 3128 3128 3128 3128 3131 3133 3133 3133 3133 3134 3135 3133 3132 3133 3132 3133 3135 3138 3139 3139 3139 3142 3142 3140 3143 3144 3144 3146 3149 3151 3152 3152 3151 3152 3154 3158 3160 3160 3161
3118 3120 3122 3122 3123 3124 3125 3125 3126 3127 3127 3129 3129 3129 3130 3130 3132 3129 3128 3128 3128 3129 3129 3131 3133 3135 3137 3138 3138 3139 3140 3141 3143 3145 3147 3145 3146 3146 3148 3152 3154 3155 3157 3160 3166
3115 3115 3116 3119 3122 3123 3124 3124 3124 3124 3126 3126 3124 3125 3126 3126 3127 3127 3127 3125 3127 3126 3128 3129 3129 3131 3132 3133 3135 3135 3136 3138 3140 3141 3142 3141 3142 3143 3147 3151 3151 3153 3156 3156 3161
3111 3113 3115 3117 3119 3121 3123 3122 3121 3120 3122 3121 3120 3118 3122 3122 3125 3125 3124 3125 3124 3124 3126 3126 3127 3127 3127 3129 3131 3133 3134 3132 3132 3135 3140 3141 3141 3145 3146 3147 3149 3149 3152 3153 3156
3110 3111 3113 3116 3116 3118 3117 3117 3116 3115 3119 3121 3120 3116 3115 3119 3120 3120 3121 3122 3122 3123 3124 3126 3126 3124 3124 3126 3127 3129 3130 3130 3131 3133 3129 3132 3135 3138 3144 3147 3143 3148 3150 3151 3154
Wind_Speed
8 8 9 10 10 10 10 10 9 10 10 12 13 13 15 16 18 18 16 14 14 13 13 12 10 4 4 8 6 4 6 4 11 2 10 9 4 2 4 5 5 5 7 4 12
9 9 9 10 10 9 9 9 9 9 10 11 13 13 15 18 20 20 15 16 15 13 12 12 3 4 4 7 4 7 4 4 5 3 8 9 11 9 4 1 2 2 7 13 12
10 10 10 11 11 11 10 10 9 8 10 11 12 14 15 16 19 18 20 18 16 14 13 12 1 10 5 9 2 3 6 6 3 5 9 6 11 13 4 3 6 5 1 17 13
11 11 11 11 11 11 11 10 10 8 8 10 12 13 14 16 12 21 22 19 18 18 15 13 6 6 8 11 11 12 4 6 3 2 4 2 9 20 6 5 11 13 2 15 21
12 12 12 12 12 12 11 11 10 10 8 8 10 12 13 15 18 12 24 22 19 20 18 13 8 7 7 16 11 9 6 6 7 4 3 7 12 8 7 6 11 12 9 9 6
12 13 13 12 12 12 12 12 11 10 10 9 9 10 12 7 17 19 19 25 23 23 20 17 12 8 14 12 9 13 8 7 3 8 4 8 11 1 10 3 10 2 2 4 4
13 13 13 13 12 12 12 12 12 11 10 10 9 9 8 7 16 25 22 24 25 25 22 18 12 8 15 11 4 7 5 9 8 9 10 12 3 4 3 9 11 4 5 9 7
13 13 13 12 12 12 12 11 12 12 11 10 11 9 3 14 19 21 21 21 23 28 25 20 14 10 13 11 9 8 5 8 7 12 12 8 11 8 4 8 4 7 7 9 11
13 13 12 12 11 10 10 10 10 11 11 11 10 9 5 7 12 12 14 10 17 26 28 24 18 17 13 13 12 3 13 5 2 5 6 10 14 9 9 10 10 1 8 6 11
15 14 12 11 11 9 9 8 11 11 12 11 10 8 7 5 3 13 14 17 18 21 27 26 19 21 18 12 9 7 10 3 8 7 7 12 13 8 11 12 14 9 11 6 2
16 14 12 11 10 8 8 8 9 11 15 13 9 12 13 9 7 7 11 14 17 23 26 25 23 25 16 17 12 15 14 14 6 4 9 11 10 11 10 11 12 12 11 10 6
14 14 12 10 9 5 6 7 7 14 15 13 15 13 16 12 10 6 7 12 20 24 23 23 26 28 19 17 13 15 17 17 17 9 9 10 7 14 10 6 6 7 14 5 13
12 12 11 9 7 8 11 10 11 14 17 3 11 8 18 15 13 11 11 8 16 22 23 22 18 20 16 14 16 19 23 11 16 12 12 16 7 11 17 16 13 13 10 4 8
11 10 11 8 9 10 11 10 10 10 8 1 4 5 20 18 13 12 16 9 16 17 22 20 22 20 20 22 19 24 16 14 11 15 17 9 8 16 17 21 16 19 15 14 9
11 10 11 9 10 13 6 5 5 3 3 2 5 4 5 15 7 9 17 16 14 17 18 23 18 20 22 22 20 26 23 13 19 22 11 10 3 16 20 24 19 17 15 9 9
11 9 10 11 12 13 9 6 6 4 4 8 4 1 5 7 8 10 16 15 10 10 18 22 18 19 21 18 19 18 12 11 21 19 3 10 11 10 24 17 13 11 17 14 13
11 10 8 11 12 11 10 10 6 7 7 1 11 8 3 8 14 12 9 19 20 18 22 25 29 22 23 25 22 22 20 6 3 6 5 1 5 3 10 12 9 12 13 13 11
11 9 7 13 13 11 14 14 10 2 2 11 7 11 4 5 12 10 14 22 25 21 17 14 20 25 15 18 19 19 17 13 5 4 3 5 5 9 7 9 15 13 16 10 12
9 8 7 15 13 14 16 18 8 5 3 18 6 18 11 8 5 12 20 21 19 18 22 11 23 16 14 14 20 17 14 13 11 5 4 10 17 10 14 14 15 14 21 20 17
7 6 7 12 14 16 19 23 19 10 6 10 9 2 11 4 10 21 15 19 23 21 14 23 25 20 19 18 24 25 19 9 7 4 0 8 6 7 9 11 8 17 21 22 21
4 5 4 8 12 17 22 24 21 15 14 10 15 14 16 15 14 13 24 15 16 20 17 21 21 25 23 19 16 26 23 20 10 7 8 3 6 10 11 13 13 11 24 21 20
7 9 10 3 11 16 18 16 15 12 9 12 10 11 18 16 16 18 13 16 15 19 26 19 17 26 20 20 19 16 29 27 17 9 10 12 13 14 16 13 17 30 35 19 20
14 12 6 4 5 8 10 8 11 5 5 8 15 14 15 14 19 17 17 12 9 13 20 24 30 33 26 22 13 13 28 28 24 22 19 9 9 20 22 14 19 25 26 19 27
15 14 16 11 4 10 9 11 8 6 11 12 20 15 19 18 14 21 19 13 11 7 11 20 22 21 20 16 13 20 18 9 2 4 24 23 21 25 24 25 22 24 23 27 33
17 18 18 17 19 14 7 9 13 10 10 11 16 17 22 21 18 20 18 15 12 11 6 20 18 20 21 20 11 15 14 20 19 12 3 11 15 24 23 19 16 16 12 19 38
20 23 19 16 13 10 6 7 12 15 17 15 15 17 14 24 18 17 20 18 18 18 11 9 11 18 21 23 21 19 19 24 28 22 27 17 17 16 20 20 18 10 15 20 27
16 22 24 17 19 15 11 9 12 14 13 9 11 13 21 14 13 13 15 22 23 25 22 18 10 8 16 21 20 20 22 14 19 27 15 29 23 19 16 23 15 12 10 9 11
Wind_Direction
280 281 282 283 283 284 281 277 269 263 253 245 237 231 222 215 215 208 194 178 179 172 173 174 172 287 301 341 330 225 238 124 164 358 40 51 110 105 119 17 352 312 322 178 191
281 281 282 283 288 290 291 289 279 267 258 249 244 237 228 218 219 211 198 182 185 179 182 184 214 292 346 358 272 218 291 149 118 55 45 71 84 77 124 39 248 160 163 168 188
281 281 282 282 283 284 283 286 286 278 264 254 247 243 235 225 223 208 207 189 193 193 198 202 227 357 37 50 101 82 173 173 91 36 11 66 46 44 120 3 16 6 131 166 184
284 281 280 281 281 281 282 281 280 278 275 264 251 246 240 227 222 212 210 200 196 202 207 214 228 345 35 21 6 344 270 261 247 153 45 148 51 67 43 345 33 34 19 163 182
285 284 282 280 280 280 282 282 280 276 270 268 259 248 243 232 215 210 207 203 200 207 216 219 196 336 341 340 346 357 306 268 252 190 155 113 103 62 94 59 55 47 88 93 143
285 283 282 282 281 279 278 280 282 279 271 262 262 255 246 239 202 213 204 208 201 208 218 224 219 294 301 331 316 345 292 279 7 201 172 118 132 140 146 274 99 317 172 71 121
289 283 280 280 280 280 278 277 278 280 277 264 259 258 250 181 203 216 212 200 203 212 215 218 236 262 298 310 256 314 303 223 319 198 169 154 125 112 332 7 161 87 193 184 184
287 287 282 278 278 279 280 280 278 276 275 268 255 257 231 217 222 229 222 226 202 207 214 217 223 260 285 278 271 304 259 268 282 215 199 191 193 199 278 274 336 50 177 202 215
285 284 284 281 278 277 277 277 272 269 267 262 259 254 232 241 258 248 243 222 208 203 213 217 217 238 236 265 276 319 339 319 269 252 283 228 173 238 231 265 292 44 225 228 224
282 277 280 283 280 282 279 271 271 271 264 263 251 239 219 185 181 228 236 227 218 205 212 215 221 230 235 242 254 308 334 329 284 291 334 248 241 226 235 245 287 205 209 242 265
278 275 276 276 278 277 283 273 272 275 269 260 248 205 175 184 191 185 210 213 208 201 210 212 222 229 218 213 258 297 292 281 300 314 297 259 236 227 244 236 245 247 213 192 235
275 267 268 270 270 266 255 251 280 293 276 261 251 221 209 211 214 165 210 205 200 198 202 207 220 225 232 236 257 284 262 283 291 281 279 258 252 223 245 227 239 254 168 143 205
282 261 258 262 259 236 232 242 243 269 293 283 253 218 200 220 229 198 223 224 202 203 196 208 212 225 237 230 260 271 275 276 288 281 252 259 231 217 219 221 220 200 223 219 176
295 273 252 246 236 234 240 250 259 279 306 268 229 208 207 220 255 220 213 194 224 218 202 224 207 212 229 247 253 272 273 252 297 303 268 4 292 214 217 227 201 204 214 217 183
293 277 259 230 227 222 220 230 225 242 341 108 106 107 194 215 167 207 205 200 227 222 209 216 210 216 238 240 258 271 278 229 250 305 276 14 341 196 214 216 208 206 236 241 327
291 277 260 219 225 233 217 210 209 223 264 172 214 329 238 213 148 109 197 211 220 241 224 231 217 236 243 237 250 269 222 215 275 288 87 29 352 268 217 234 218 229 258 238 248
290 278 255 216 221 219 216 207 206 226 156 232 217 229 317 254 185 200 210 215 216 227 247 239 241 228 239 258 258 259 236 189 302 289 225 321 276 239 217 231 258 258 250 245 210
285 279 259 210 214 209 203 205 227 222 78 359 334 213 218 156 195 217 219 210 220 232 249 267 263 235 227 247 259 258 235 206 215 211 218 252 241 302 226 257 292 255 229 217 206
282 277 230 213 211 205 204 208 218 159 338 355 116 192 210 210 188 197 218 232 228 241 236 247 251 220 234 251 250 259 224 239 218 203 128 267 273 307 288 275 257 260 227 198 189
271 252 219 208 209 212 215 221 226 217 320 351 11 182 344 340 334 239 227 232 232 243 230 239 261 228 243 279 248 247 246 214 223 128 20 279 284 260 275 218 207 229 221 190 180
229 185 183 190 215 222 227 234 242 233 287 315 329 319 307 320 333 333 238 251 249 240 225 233 249 254 273 273 288 236 237 234 232 187 167 225 266 231 216 197 245 207 189 181 180
182 168 158 199 217 233 245 258 275 267 215 278 321 309 320 293 310 323 325 279 253 251 226 234 234 251 270 281 285 298 232 236 227 216 216 233 244 201 193 209 217 195 187 168 195
169 171 208 220 270 283 268 239 283 222 206 291 305 323 295 297 305 311 317 316 258 256 237 237 232 248 272 279 264 306 231 230 234 248 232 199 243 221 218 217 181 202 232 211 174
175 168 191 241 316 326 275 258 276 272 252 307 304 298 280 279 288 304 309 294 301 292 263 225 225 235 247 276 302 296 281 250 334 202 254 232 261 202 202 204 180 194 198 233 176
182 179 191 210 238 267 278 283 303 261 239 289 313 265 268 273 290 307 308 283 289 305 313 223 233 237 253 276 310 296 298 251 254 291 249 193 205 200 197 192 216 233 238 205 196
203 202 200 198 205 227 246 284 306 271 294 291 311 307 273 254 279 298 298 300 300 286 319 299 234 243 268 272 270 277 275 293 264 269 293 209 197 200 192 194 197 198 213 212 208
222 223 222 216 220 224 244 272 289 273 260 275 325 310 244 257 270 300 292 281 285 295 288 286 297 299 260 275 254 264 272 262 274 280 227 210 217 193 208 229 202 193 213 226 231